RH
29 30 29 28 28 29 30 45 62 69 79 77 70 67 74 81 81 85 90 90 94 91 90 89 81 81 79 79 80 73 54 41 50 59 50 47 46 47 48 52 62 76 72
36 38 37 37 37 38 37 37 35 38 52 66 70 67 68 73 76 96 92 85 92 95 97 96 96 88 85 85 86 84 79 57 45 67 75 63 51 50 50 54 72 72 71
46 48 48 49 51 49 47 45 44 44 46 43 44 46 54 57 59 66 54 45 62 78 81 95 94 97 99 96 89 86 87 85 66 45 56 68 72 63 56 72 69 66 64
54 54 57 60 58 54 51 48 47 49 52 54 56 55 54 53 51 52 60 60 56 57 63 67 72 82 89 94 96 100 97 88 87 68 46 54 65 74 72 70 68 65 68
53 59 65 66 64 60 61 60 59 66 60 59 62 63 64 64 62 63 65 60 54 53 54 52 55 57 61 74 84 84 93 93 91 91 76 61 68 72 76 76 73 73 72
52 62 74 71 70 62 68 76 76 75 74 75 74 70 67 67 68 63 62 61 66 69 74 72 69 63 61 52 56 74 84 94 100 100 92 88 76 77 76 75 83 79 79
58 66 69 69 71 63 63 75 78 74 74 84 81 72 60 56 55 56 59 72 65 69 65 61 59 61 65 64 59 58 63 74 68 95 98 94 95 81 90 83 83 79 85
57 68 69 65 75 70 69 75 83 83 83 91 95 85 74 59 60 43 50 49 49 48 57 59 69 66 62 60 68 70 68 77 80 83 97 97 99 96 98 94 87 91 93
58 64 68 70 62 74 71 71 74 74 75 70 84 92 90 90 87 66 64 52 57 60 59 63 65 72 79 68 54 45 47 72 83 89 96 98 80 89 98 96 95 94 94
59 60 65 67 62 64 69 71 76 74 77 80 73 81 92 99 96 84 79 45 51 65 77 79 69 66 66 66 67 64 56 59 78 79 98 98 99 91 91 92 98 98 98
47 60 63 65 64 65 68 73 80 83 84 84 93 91 82 79 86 96 95 93 61 76 85 82 80 81 74 82 87 83 79 89 84 94 99 91 98 99 98 94 100 99 100
32 49 66 64 67 66 67 73 82 90 91 89 82 83 85 99 98 96 91 87 84 74 84 80 88 97 97 100 100 89 77 99 86 83 99 100 100 99 98 97 90 82 81
27 35 51 67 74 74 78 86 85 98 99 100 90 90 97 98 93 86 86 85 88 72 76 81 99 99 92 100 100 100 100 92 88 94 91 87 87 90 84 87 72 80 83
15 21 32 59 78 80 78 77 98 99 100 93 90 97 96 90 87 89 92 90 88 84 78 91 99 96 82 89 97 100 96 98 99 98 93 90 86 87 87 81 80 78 77
20 16 17 48 72 78 86 96 100 99 99 83 86 89 87 83 76 80 90 92 100 98 96 92 99 95 91 84 96 99 99 100 99 98 90 90 88 85 79 77 78 79 81
31 17 15 29 66 75 79 90 92 82 75 78 82 84 82 79 79 80 85 90 92 100 99 98 98 99 99 98 100 100 98 100 100 99 92 86 83 84 81 80 73 61 56
37 29 15 14 40 70 73 74 77 77 77 81 84 74 55 67 82 82 82 85 89 100 98 99 95 82 96 99 99 98 99 96 94 91 89 85 81 70 66 66 55 38 22
44 38 27 13 12 37 66 70 72 77 78 75 72 50 66 74 75 84 81 79 81 88 93 99 98 98 92 93 94 95 92 94 88 80 74 62 41 22 12 11 11 10 10
47 44 38 27 14 14 39 69 73 74 71 68 59 25 46 54 81 85 86 85 80 83 89 92 98 97 97 95 98 98 95 78 44 23 14 10 10 10 11 11 11 11 11
49 49 44 39 30 16 12 24 57 68 67 58 27 15 23 21 34 63 77 78 70 66 42 46 80 98 99 98 92 74 45 26 19 14 12 12 13 13 13 13 14 15 17
48 54 54 47 40 33 20 12 13 20 31 21 16 16 17 16 17 17 17 18 17 15 13 22 38 40 39 33 25 19 14 11 12 15 16 16 15 15 16 17 19 20 20
37 47 58 59 51 43 35 21 13 13 14 14 15 16 16 14 14 13 12 12 11 10 10 10 11 11 13 14 12 13 14 15 16 18 18 18 17 19 20 21 21 21 22
40 41 44 57 61 54 45 35 23 16 15 15 15 15 15 16 15 14 12 10 11 10 10 11 11 13 13 14 15 15 16 16 17 18 20 20 22 23 23 23 24 26 28
39 40 42 55 63 62 58 48 38 28 19 18 19 17 16 18 18 17 15 14 12 11 11 12 12 14 14 15 16 17 17 18 19 20 22 22 24 25 24 25 28 31 28
45 41 39 45 62 66 68 63 52 43 34 22 21 22 21 20 18 18 17 18 16 14 13 14 14 15 16 16 17 18 18 20 22 22 23 24 25 25 25 27 31 31 26
50 48 44 42 48 51 62 69 68 57 48 38 27 22 21 20 20 21 20 19 18 16 16 16 17 17 17 17 17 19 21 23 25 24 27 27 25 26 26 29 31 27 28
Wind_Speed
26 27 27 27 27 27 28 29 29 26 26 26 27 27 27 26 25 25 26 26 27 28 27 26 27 29 29 29 29 28 29 30 28 26 24 23 22 22 21 20 18 17 17
26 26 27 27 27 28 28 29 30 32 33 30 29 28 29 29 29 30 30 29 28 28 28 30 31 33 34 33 34 32 29 31 33 30 29 27 25 24 24 22 20 21 20
21 23 25 25 25 26 27 28 28 29 29 30 31 31 30 31 31 32 33 34 34 31 32 31 32 33 36 36 36 36 35 33 34 37 35 32 30 28 25 24 23 22 21
21 22 22 21 21 20 21 21 23 25 26 26 27 26 27 29 29 28 28 29 31 34 34 34 35 35 36 36 36 37 41 39 37 37 39 38 34 32 30 28 26 25 24
22 21 21 19 17 16 16 15 15 18 21 23 25 26 25 25 26 27 28 28 28 27 29 32 32 33 34 37 38 42 43 43 45 42 42 40 36 35 34 32 31 30 29
20 20 19 18 15 14 12 12 12 11 14 15 17 18 19 20 21 21 21 20 19 18 20 22 24 28 31 33 38 39 39 43 47 43 46 38 38 37 33 36 37 36 36
14 13 16 11 12 13 13 12 12 12 10 10 14 15 15 14 11 13 12 13 19 22 24 24 26 25 24 27 31 37 39 44 40 39 40 35 46 41 38 36 38 38 35
13 13 14 12 11 12 11 10 10 12 11 10 13 16 11 14 1 19 11 15 14 18 18 19 17 22 24 24 24 27 32 36 36 35 34 28 37 36 37 35 37 36 32
16 13 13 13 12 11 11 11 11 12 14 11 11 8 5 5 28 14 20 16 19 19 19 18 17 18 18 21 21 23 26 29 29 31 32 32 30 36 34 33 33 32 29
17 14 12 13 13 12 12 11 11 12 13 14 12 9 10 14 8 20 20 27 20 23 20 18 15 18 18 22 23 25 28 27 25 30 30 31 27 25 30 26 30 22 19
18 15 13 13 14 12 12 12 11 12 13 14 13 14 15 15 9 9 23 29 27 24 24 21 17 17 19 19 18 18 21 19 17 23 24 20 20 24 17 10 13 8 8
16 15 15 14 13 13 12 12 14 13 14 15 15 14 14 10 11 11 18 23 25 24 22 20 17 16 18 17 12 15 16 5 15 18 21 17 24 13 4 6 7 8 9
16 15 16 17 13 12 12 12 13 11 11 13 13 13 10 9 11 13 15 17 20 21 17 18 13 12 14 13 9 11 10 10 11 9 8 5 10 4 5 13 11 14 16
17 17 17 21 16 11 11 12 10 9 11 10 10 10 10 12 14 14 13 15 18 15 13 15 12 10 12 14 13 11 8 5 1 2 2 2 5 6 9 10 11 14 15
17 17 16 18 14 7 8 9 9 10 10 9 9 11 13 14 14 11 10 11 12 11 17 11 9 10 9 9 9 9 10 5 4 3 4 5 4 7 10 12 15 16 17
18 17 15 15 14 9 9 8 7 8 9 9 12 14 15 15 13 13 12 12 11 12 12 15 13 14 12 10 10 6 4 4 10 9 5 5 7 8 10 12 12 12 12
18 18 16 15 15 12 12 11 10 11 11 12 13 15 16 15 13 12 11 10 11 12 14 16 14 14 12 10 7 7 8 10 10 11 8 10 9 9 10 10 11 11 12
20 19 17 17 16 15 14 14 14 15 14 14 15 16 15 13 13 12 12 11 11 11 12 12 13 12 12 12 12 11 11 13 14 11 8 10 9 9 9 9 10 11 11
22 21 20 19 18 18 17 16 16 16 16 17 17 16 15 13 12 12 13 14 12 11 11 11 10 11 11 12 10 9 10 9 8 8 8 8 8 8 8 9 10 9 9
24 24 22 22 20 20 19 19 19 19 19 19 18 17 15 14 12 11 11 11 11 12 11 10 10 9 9 9 8 8 7 7 7 7 7 6 7 8 9 9 10 10 11
25 26 26 25 23 22 21 20 21 20 21 20 19 17 15 14 13 13 12 12 11 11 10 9 10 10 9 9 8 7 6 6 5 6 5 6 6 6 7 9 10 12 14
25 26 28 28 28 26 23 22 22 22 22 22 20 19 18 17 15 14 13 13 12 10 10 10 10 9 9 8 6 5 5 5 4 5 6 6 6 7 8 10 12 13 14
27 27 27 28 29 28 27 25 24 24 23 23 22 20 20 18 17 16 14 13 12 11 10 10 9 8 8 7 6 6 5 6 6 6 6 6 6 7 10 12 10 10 9
27 27 27 27 28 29 27 27 27 27 26 25 24 22 21 20 19 17 16 15 13 12 11 10 9 9 8 8 7 7 7 7 7 7 7 6 7 8 12 11 9 7 9
27 27 26 25 25 27 27 27 28 29 29 27 26 25 24 23 20 20 19 17 16 15 13 12 11 11 10 10 10 9 9 9 8 8 8 8 8 9 9 9 8 8 16
27 26 25 24 25 26 26 26 28 30 31 30 27 26 27 26 23 22 21 19 19 16 15 14 13 12 12 11 11 10 10 9 9 9 7 8 9 9 5 7 7 15 16
Wind_Direction
283 282 280 276 273 269 266 263 263 264 265 267 270 272 274 278 281 281 281 283 284 281 272 264 264 267 273 272 273 272 270 264 257 254 253 251 250 250 248 247 246 250 250
286 285 283 282 280 278 273 270 266 264 263 263 265 269 273 276 277 277 282 284 283 283 279 267 266 266 266 270 272 272 270 266 259 253 251 251 250 248 249 248 244 248 253
291 291 290 289 287 284 281 277 273 269 269 268 268 266 269 272 274 277 283 281 279 277 276 276 270 267 263 263 267 269 271 268 262 255 251 249 248 248 246 244 245 248 252
296 296 296 298 296 293 291 286 281 273 270 271 273 274 274 275 278 280 279 282 280 278 279 276 272 270 270 269 267 265 266 266 263 257 251 248 247 246 245 245 246 248 251
292 287 291 294 294 297 303 302 295 287 281 278 277 277 278 278 278 281 284 288 288 286 282 280 278 272 268 265 266 269 265 264 263 258 251 247 245 246 245 245 246 246 246
290 282 283 286 292 295 299 303 306 300 297 299 295 293 289 285 286 291 293 295 295 292 298 300 292 285 275 272 262 263 265 265 264 259 258 246 248 248 247 247 244 247 259
300 282 279 293 292 296 299 301 305 305 306 311 310 305 301 299 301 294 307 298 303 301 302 300 295 294 296 285 273 262 262 266 271 268 264 237 248 255 252 254 253 258 264
310 286 289 292 290 290 289 291 294 302 311 323 329 331 333 334 244 320 329 327 322 318 313 309 309 296 293 302 296 281 269 267 263 261 268 263 244 258 254 252 260 262 253
321 301 288 287 287 289 289 290 292 294 303 313 316 328 329 304 319 323 329 335 334 335 328 318 294 314 299 296 292 299 294 275 265 260 257 259 260 253 250 254 259 259 261
334 317 295 279 282 280 282 282 284 288 296 305 309 306 298 301 317 316 315 326 332 342 343 328 316 309 311 303 276 293 304 270 262 252 250 248 246 257 252 250 253 257 257
344 338 321 300 285 277 270 272 274 279 285 293 301 307 310 313 318 305 311 322 332 353 343 337 326 321 326 328 312 319 316 255 272 247 235 235 233 241 258 252 229 208 177
338 340 333 316 305 287 276 272 269 276 286 288 291 295 305 315 305 310 309 322 327 343 339 337 331 340 343 341 320 322 6 269 272 252 220 168 155 151 157 278 277 288 267
328 330 330 322 310 293 283 283 279 281 285 292 303 310 309 308 301 303 307 317 319 331 330 327 339 343 339 336 354 13 31 50 76 26 31 43 66 261 300 261 290 278 269
322 322 328 328 321 292 283 287 289 278 280 288 301 296 296 285 281 287 304 314 316 320 326 321 325 327 343 337 331 344 339 26 49 134 254 51 230 236 265 279 276 273 272
316 317 321 327 329 304 287 290 285 278 277 283 285 288 288 294 295 290 275 289 300 306 317 306 316 317 326 328 338 353 351 29 46 23 340 297 254 249 259 269 271 272 273
309 311 313 317 320 306 296 285 281 287 293 294 298 298 296 293 295 305 300 288 283 279 290 303 312 311 311 315 318 335 347 350 333 319 310 296 294 286 286 288 289 290 284
300 305 305 304 306 304 299 295 291 294 295 297 301 303 303 292 283 286 292 295 292 274 274 282 289 290 298 298 295 297 305 320 317 321 312 313 313 303 294 289 287 288 284
284 292 299 301 298 295 290 292 290 289 290 295 298 301 306 304 287 281 280 286 291 292 285 271 277 285 287 286 288 289 295 293 301 303 306 299 296 294 293 292 290 294 295
277 282 287 291 288 285 282 282 283 284 286 289 293 294 293 300 296 284 278 282 277 283 286 279 270 274 271 267 263 267 279 296 297 308 304 301 300 299 299 298 297 295 294
274 275 278 281 285 285 281 277 277 278 281 286 290 291 292 292 287 285 281 281 280 280 281 278 273 262 260 259 263 268 277 286 289 286 292 304 312 310 307 305 308 311 308
282 276 273 273 276 279 281 278 277 277 279 282 282 283 283 281 280 279 279 277 277 278 279 274 266 260 258 257 257 263 265 269 265 264 285 305 299 292 295 304 308 305 304
287 283 277 274 273 273 277 277 277 276 277 278 279 277 277 276 275 275 275 275 274 271 270 268 262 261 262 258 256 256 262 272 273 261 286 290 273 280 289 299 300 297 294
287 285 281 275 272 272 274 275 276 275 274 275 276 274 274 275 275 274 272 269 269 267 263 261 263 263 259 257 259 261 263 266 274 279 284 288 276 284 294 296 289 278 275
283 283 282 279 276 271 270 271 274 275 273 271 271 271 270 270 270 269 268 265 261 260 259 256 254 252 255 256 259 264 267 269 273 271 277 279 267 289 301 298 288 269 307
282 278 277 276 276 275 274 271 270 271 273 274 272 271 269 268 268 268 266 264 261 259 257 257 254 252 254 257 261 261 261 266 274 271 278 280 287 304 300 279 267 256 310
280 280 276 275 277 277 276 271 270 270 270 269 268 269 269 270 266 264 264 261 258 260 260 259 257 254 254 256 261 260 257 258 267 284 264 281 299 307 304 278 242 294 303